Location: Central Falls
(41.8900°N, 71.3929°W)
Time: 14:29:53
(UTC+00:00)

Vanguard 1 - Pass Details

Date: 06 December 2023
Orbit: 653 x 3826 km, 34.3° (Epoch: 24 February)

Event Time Altitude Azimuth Distance (km) Brightness Sun altitude
Rises 06:44:42 0° 281° (W) 7,968 - -56.9°
Reaches altitude 10° 06:54:18 10° 262° (W) 6,829 - -55.3°
Maximum altitude 07:03:55 15° 236° (WSW) 6,019 - -53.7°
Drops below altitude 10° 07:12:23 10° 209° (SSW) 5,839 - -52.2°
Sets 07:19:26 0° 188° (S) 6,203 - -50.9°
